Wind_Speed
28 16 18 19 16 14 14 16 15 15 21 19 15 13 15 14 15 17 19 23 22 22 22 25 28 24 24 26 27 27 29 31 29 32 30 24 20 13 4 7 9 10 9 8
6 18 17 16 15 15 16 15 19 19 19 16 18 5 15 11 14 16 19 19 20 21 22 23 24 26 26 26 27 27 27 29 29 30 31 27 23 18 11 6 9 9 7 12
15 12 18 16 16 18 15 18 19 23 22 17 16 9 9 7 12 15 17 17 19 22 23 23 24 25 26 28 28 27 26 26 27 27 29 29 22 18 13 7 9 11 7 13
8 12 15 16 18 18 13 22 24 24 17 7 7 3 2 4 9 15 16 16 17 19 20 22 23 25 24 27 27 28 26 25 25 27 30 27 28 27 23 19 12 9 14 11
4 8 14 18 18 17 20 24 23 17 6 4 8 3 3 10 9 11 13 15 16 16 18 20 22 23 24 26 27 27 27 25 27 25 26 27 27 27 25 23 16 11 10 8
12 10 11 15 13 13 20 23 17 11 7 3 9 8 3 3 6 9 13 16 17 18 18 18 19 22 24 25 27 28 26 26 26 26 25 26 26 28 26 24 21 15 13 10
7 11 10 19 12 9 20 20 8 10 9 8 5 9 4 1 4 8 12 15 17 17 17 19 20 21 24 26 27 28 27 26 26 25 24 24 27 26 27 26 23 20 16 12
8 4 11 11 8 13 16 14 7 13 11 13 6 4 2 8 7 9 12 13 16 19 21 21 21 21 22 25 27 28 27 26 25 25 24 23 25 26 26 26 24 19 18 17
7 3 3 7 7 11 9 13 10 11 11 9 5 3 4 7 8 10 12 13 16 19 22 22 23 24 24 24 25 27 27 26 24 23 24 23 22 26 27 26 25 22 16 15
7 6 2 7 4 9 7 9 8 8 6 13 12 6 0 4 6 9 13 16 17 19 21 23 23 23 25 25 24 25 26 25 24 23 24 24 22 24 26 26 27 26 20 14
8 5 8 12 2 6 5 8 6 8 3 10 9 11 5 4 7 8 11 15 17 20 23 23 24 24 23 23 25 23 24 24 23 23 25 23 24 23 24 26 27 29 22 14
5 4 10 7 6 4 7 7 8 7 11 11 10 4 1 2 12 15 17 18 17 19 21 22 23 25 24 22 24 23 22 23 22 22 23 24 22 23 24 26 27 30 23 16
9 2 6 4 5 8 10 10 11 10 8 11 11 6 5 18 15 18 20 18 16 19 23 21 23 24 21 21 22 23 21 21 21 21 22 23 23 24 26 25 26 30 22 19
3 5 7 7 12 14 13 12 12 8 9 11 12 16 16 16 10 18 16 15 14 20 21 19 23 21 18 19 21 22 20 20 21 20 20 21 22 22 24 25 25 24 19 20
3 6 10 12 18 15 4 13 14 11 8 10 12 14 15 9 10 10 10 14 16 17 17 19 21 19 18 19 21 19 18 19 19 19 18 20 21 21 22 25 25 23 15 20
8 7 13 17 3 3 15 14 13 14 8 7 11 16 10 22 20 20 18 16 15 15 14 18 18 18 17 19 20 17 18 18 18 17 17 18 19 21 22 23 24 21 14 20
8 6 9 6 8 10 13 4 10 10 8 4 9 12 14 10 14 21 22 13 11 14 17 17 16 16 18 18 17 16 16 16 16 17 17 17 18 20 21 23 22 22 18 18
7 9 7 9 12 4 2 6 7 7 11 11 11 2 4 6 16 20 7 5 13 14 15 14 15 16 16 15 14 15 14 15 17 18 17 18 19 19 20 22 20 22 20 18
12 6 5 4 8 17 11 7 4 4 13 10 9 4 9 11 14 7 5 14 16 14 14 14 13 15 13 13 12 12 13 16 16 18 17 20 20 17 19 19 22 20 19 22
8 8 5 5 5 4 4 6 4 3 4 5 4 6 9 11 7 8 17 16 16 15 13 13 13 12 11 11 11 13 12 12 15 18 18 18 19 16 18 18 20 17 19 20
6 7 11 10 8 9 11 11 6 3 3 1 5 7 9 5 9 14 15 16 15 14 14 12 11 10 10 9 10 11 13 14 15 16 17 17 17 16 17 15 15 17 18 17
5 3 4 5 4 7 13 10 5 2 1 6 6 8 8 8 10 12 14 13 13 13 12 11 10 9 9 9 11 11 12 14 15 15 16 15 15 14 14 16 12 15 18 18
5 7 2 4 4 8 12 15 10 11 10 8 8 7 7 8 9 10 11 12 11 10 11 10 10 9 8 10 10 12 13 13 14 13 13 13 13 14 16 14 16 15 18 17
11 17 6 3 8 14 9 15 17 14 11 9 7 6 4 6 7 8 9 9 9 9 9 9 9 8 9 9 10 10 11 12 11 12 11 10 11 14 14 15 13 13 18 21
12 11 8 13 20 26 25 19 13 17 13 10 7 6 5 4 5 7 7 6 6 6 7 7 7 7 8 8 8 8 10 10 11 10 10 10 10 12 12 14 16 14 18 22
10 7 9 5 3 5 10 5 8 12 13 11 10 8 6 5 4 4 4 4 3 4 5 5 5 6 7 6 7 8 9 8 10 8 8 10 10 10 10 12 15 15 18 22
Wind_Direction
47 39 31 16 24 0 323 320 307 336 342 320 300 276 86 50 49 36 25 17 13 3 352 348 358 0 359 1 1 1 356 359 0 354 344 349 349 352 305 268 253 236 227 232
96 36 14 13 20 355 343 354 338 318 318 304 288 355 57 51 51 33 23 11 0 2 2 358 353 352 358 358 359 359 359 1 356 358 347 348 349 346 340 280 264 255 220 217
66 33 12 19 14 358 342 357 324 312 305 278 323 86 50 32 46 32 25 11 2 360 357 357 359 356 353 356 357 356 359 1 357 354 351 349 347 346 344 302 256 263 244 226
61 29 15 19 12 -0 350 336 321 308 288 353 341 88 152 29 31 24 16 9 9 2 354 355 354 356 353 356 354 355 355 359 357 358 354 356 356 350 347 339 322 268 265 254
67 21 20 20 3 5 346 334 323 313 344 70 358 71 329 30 8 7 5 0 1 3 358 354 352 352 351 355 354 352 354 356 358 359 357 357 356 353 347 339 332 312 299 293
105 86 47 16 6 7 347 353 352 31 71 75 337 321 121 47 334 353 353 357 356 355 355 352 350 348 351 352 352 352 349 354 355 357 357 356 356 357 355 344 336 335 318 286
135 67 93 25 9 354 6 9 1 6 357 354 301 312 161 238 329 352 355 359 356 352 352 347 349 348 349 351 350 350 350 349 352 356 356 355 353 355 355 353 341 331 322 306
346 294 34 17 20 349 11 16 14 327 335 309 45 350 26 232 8 345 348 357 354 355 355 352 352 349 346 346 347 348 347 346 349 352 356 352 352 354 352 352 350 327 318 307
3 18 110 69 354 21 352 13 341 336 318 322 353 115 351 287 353 346 347 356 352 351 351 349 347 351 345 342 343 344 344 344 346 349 349 352 354 350 353 352 349 334 319 310
3 298 161 129 285 40 28 2 341 347 318 326 332 338 205 256 318 344 352 351 349 348 342 341 344 341 341 339 339 341 341 342 344 347 348 348 349 355 350 351 349 344 330 310
332 276 303 295 131 23 347 0 350 324 322 330 320 321 131 236 287 319 340 341 341 342 335 335 338 341 335 335 336 339 339 338 341 346 345 345 347 353 351 350 349 346 341 321
43 300 290 337 119 110 270 353 334 329 324 317 304 324 317 268 339 339 337 328 328 330 328 327 333 336 333 333 333 336 336 335 335 337 342 343 348 347 350 352 351 350 350 339
354 324 310 167 181 203 301 326 327 313 309 284 321 314 159 346 355 334 323 327 321 318 325 330 332 326 329 329 330 333 334 335 337 335 337 342 342 350 348 351 352 350 355 354
333 262 252 263 287 285 301 310 311 299 283 309 286 311 331 322 328 315 324 308 299 315 324 326 322 328 327 326 330 333 334 336 338 335 336 339 343 347 348 347 351 354 359 3
242 281 295 299 292 291 308 295 293 279 258 267 289 299 295 310 285 307 320 312 303 312 316 317 323 328 327 330 333 335 338 339 336 335 337 338 344 344 349 347 352 356 7 14
230 271 298 295 297 201 287 279 268 272 288 284 294 289 316 321 334 326 313 310 305 308 303 312 328 330 333 335 336 340 341 337 338 340 341 342 346 346 350 349 356 359 15 26
251 292 308 283 311 271 277 263 231 263 281 297 278 278 302 322 312 293 288 298 310 305 303 329 330 335 337 336 340 346 345 347 346 346 348 347 346 348 350 351 1 6 21 29
266 289 292 288 308 288 156 188 176 223 263 264 263 169 160 258 291 302 35 326 299 318 328 331 335 338 335 338 346 348 353 353 352 351 347 346 350 352 348 349 2 1 21 24
226 268 284 288 302 280 285 154 225 284 293 284 270 333 296 301 308 340 345 328 323 327 336 336 335 333 334 344 348 350 355 353 349 348 354 349 350 352 350 354 357 7 25 26
218 218 254 299 296 289 49 144 113 323 262 139 254 309 315 323 313 329 319 324 333 335 333 332 332 330 337 347 354 352 344 351 352 346 350 351 347 355 359 354 358 13 19 21
209 229 238 247 254 262 260 130 139 268 51 14 311 309 314 331 304 309 321 331 331 331 330 331 332 334 340 345 350 342 343 349 346 344 349 351 353 354 351 4 5 4 13 20
237 219 228 230 254 265 112 128 198 55 249 295 300 310 322 312 314 321 329 332 334 332 333 334 336 338 337 346 345 336 338 339 340 340 346 351 356 354 2 4 13 10 10 15
237 216 238 238 253 142 198 224 219 249 265 287 290 303 311 317 322 330 331 337 338 338 337 337 335 332 335 336 333 332 335 337 337 341 346 351 357 8 359 13 13 13 10 8
243 224 225 279 259 255 292 241 235 246 246 262 271 287 294 309 320 326 336 340 341 343 343 339 338 335 333 335 337 339 339 341 343 344 349 354 4 7 11 8 13 15 11 9
264 297 242 253 268 271 273 250 253 235 234 239 250 251 270 293 309 322 331 340 345 347 348 348 348 338 337 336 341 346 346 350 353 349 355 7 3 0 12 9 10 18 22 14
226 223 221 245 241 316 299 260 267 233 225 227 232 232 248 262 284 303 314 330 348 357 352 355 353 348 346 349 348 345 353 5 359 359 2 359 5 9 13 8 12 13 9 5
Height
1547 1545 1548 1552 1553 1554 1548 1542 1534 1532 1538 1540 1536 1539 1546 1553 1557 1560 1560 1559 1561 1562 1560 1557 1554 1551 1548 1544 1540 1535 1528 1524 1519 1513 1506 1503 1500 1500 1502 1503 1504 1505 1506 1508
1542 1556 1558 1557 1555 1555 1549 1545 1547 1546 1544 1543 1538 1538 1549 1555 1557 1560 1560 1563 1563 1562 1561 1558 1555 1552 1549 1545 1542 1537 1532 1526 1521 1516 1511 1506 1502 1501 1501 1501 1502 1502 1503 1505
1559 1565 1562 1559 1557 1556 1551 1551 1550 1544 1533 1530 1533 1548 1559 1558 1558 1561 1563 1566 1565 1564 1562 1559 1557 1554 1550 1546 1543 1539 1535 1530 1524 1519 1514 1508 1505 1502 1500 1499 1500 1500 1499 1502
1560 1566 1564 1561 1561 1560 1551 1551 1543 1532 1525 1531 1535 1566 1563 1558 1560 1563 1565 1566 1566 1565 1563 1561 1558 1555 1551 1548 1544 1540 1536 1532 1527 1522 1517 1512 1508 1503 1501 1498 1497 1497 1498 1498
1571 1566 1566 1564 1565 1563 1561 1549 1536 1523 1524 1533 1542 1551 1571 1563 1565 1566 1567 1566 1565 1564 1562 1561 1558 1556 1552 1548 1545 1541 1536 1532 1528 1524 1520 1514 1510 1506 1501 1497 1495 1495 1495 1495
1562 1566 1569 1571 1567 1565 1561 1550 1534 1524 1535 1561 1560 1556 1577 1574 1572 1567 1567 1565 1563 1562 1561 1560 1558 1555 1552 1549 1545 1541 1536 1532 1528 1524 1520 1515 1511 1506 1501 1497 1494 1492 1491 1491
1551 1564 1568 1571 1571 1566 1561 1555 1552 1554 1550 1553 1560 1553 1576 1571 1568 1567 1565 1563 1563 1562 1561 1559 1556 1554 1551 1548 1545 1541 1536 1532 1528 1524 1520 1516 1511 1506 1502 1498 1493 1490 1488 1488
1561 1560 1568 1575 1575 1573 1566 1565 1574 1579 1566 1556 1559 1568 1568 1572 1567 1566 1564 1563 1562 1562 1560 1558 1555 1553 1550 1547 1544 1540 1536 1531 1527 1523 1519 1516 1512 1507 1502 1498 1493 1490 1488 1486
1572 1564 1568 1573 1573 1572 1569 1569 1569 1568 1558 1553 1549 1571 1574 1568 1566 1565 1563 1562 1561 1561 1560 1557 1555 1552 1549 1546 1542 1538 1535 1530 1526 1521 1517 1514 1511 1507 1502 1498 1493 1488 1486 1484
1575 1573 1561 1568 1572 1570 1573 1571 1575 1568 1571 1567 1555 1551 1561 1564 1564 1563 1562 1562 1561 1560 1559 1557 1554 1551 1548 1545 1541 1537 1533 1529 1525 1520 1516 1513 1510 1506 1502 1497 1493 1488 1483 1481
1574 1575 1564 1557 1568 1571 1572 1572 1573 1571 1562 1573 1563 1557 1562 1566 1562 1560 1560 1560 1560 1559 1558 1555 1552 1549 1546 1542 1539 1535 1531 1528 1523 1520 1516 1512 1508 1505 1501 1496 1491 1486 1481 1477
1578 1579 1569 1557 1569 1572 1571 1567 1571 1576 1571 1569 1564 1561 1559 1560 1563 1560 1559 1558 1558 1558 1556 1553 1550 1547 1543 1540 1537 1533 1530 1526 1522 1519 1515 1511 1507 1503 1499 1495 1490 1484 1479 1475
1583 1573 1570 1555 1569 1570 1564 1564 1567 1568 1569 1572 1565 1557 1555 1559 1561 1561 1558 1557 1557 1555 1553 1550 1548 1544 1541 1538 1534 1531 1527 1524 1520 1517 1513 1510 1506 1502 1498 1494 1489 1483 1478 1474
1587 1578 1577 1577 1570 1563 1562 1563 1566 1568 1570 1565 1562 1552 1557 1557 1559 1557 1558 1557 1555 1552 1550 1548 1545 1541 1538 1535 1532 1528 1525 1521 1518 1515 1512 1508 1505 1501 1497 1493 1488 1482 1478 1474
1584 1576 1568 1564 1560 1555 1563 1562 1562 1563 1565 1569 1556 1561 1558 1556 1556 1556 1554 1553 1551 1549 1547 1545 1541 1538 1535 1532 1529 1526 1522 1519 1517 1514 1510 1507 1504 1500 1496 1492 1487 1482 1478 1475
1577 1574 1568 1560 1557 1564 1557 1555 1554 1553 1554 1556 1557 1555 1552 1553 1552 1551 1550 1549 1548 1547 1544 1540 1537 1535 1532 1529 1527 1524 1521 1518 1515 1511 1508 1505 1502 1499 1495 1491 1487 1482 1478 1475
1571 1569 1566 1556 1549 1553 1548 1539 1544 1547 1548 1555 1556 1550 1550 1552 1552 1548 1545 1545 1545 1544 1539 1537 1534 1532 1530 1527 1525 1522 1520 1516 1513 1510 1506 1503 1501 1498 1494 1491 1487 1483 1479 1475
1569 1568 1566 1555 1548 1548 1531 1536 1543 1549 1546 1546 1545 1546 1548 1548 1546 1542 1542 1542 1540 1538 1536 1534 1532 1530 1528 1526 1523 1521 1518 1515 1513 1509 1506 1503 1500 1497 1494 1491 1487 1483 1479 1476
1568 1570 1566 1563 1553 1537 1523 1530 1537 1543 1541 1539 1539 1541 1543 1542 1541 1539 1540 1538 1536 1535 1533 1531 1530 1528 1526 1524 1522 1520 1517 1515 1512 1509 1507 1503 1500 1497 1494 1491 1487 1485 1481 1477
1562 1567 1571 1562 1565 1549 1529 1533 1540 1543 1540 1536 1538 1538 1540 1540 1540 1538 1538 1535 1533 1531 1530 1529 1527 1526 1524 1523 1521 1519 1517 1515 1512 1509 1506 1504 1500 1497 1494 1491 1489 1486 1483 1479
1560 1561 1562 1559 1557 1537 1525 1532 1539 1542 1536 1535 1536 1536 1536 1537 1538 1536 1534 1533 1531 1530 1528 1526 1525 1524 1523 1521 1520 1518 1516 1514 1512 1510 1507 1504 1500 1497 1495 1492 1489 1487 1485 1481
1544 1546 1546 1543 1544 1538 1525 1535 1538 1531 1532 1533 1532 1532 1534 1534 1533 1533 1532 1531 1529 1527 1526 1524 1523 1522 1521 1520 1518 1517 1515 1513 1511 1509 1506 1504 1501 1498 1495 1493 1491 1488 1486 1483
1539 1535 1535 1533 1522 1523 1523 1524 1526 1528 1529 1530 1531 1530 1531 1532 1531 1531 1530 1529 1527 1526 1525 1523 1522 1521 1519 1518 1517 1515 1514 1511 1509 1507 1506 1504 1501 1499 1496 1493 1491 1489 1486 1483
1525 1527 1529 1531 1518 1517 1518 1518 1520 1523 1524 1526 1527 1528 1529 1529 1530 1529 1528 1527 1527 1525 1524 1522 1521 1519 1518 1517 1515 1514 1512 1509 1507 1506 1504 1503 1501 1499 1498 1495 1493 1490 1486 1483
1529 1525 1518 1516 1514 1514 1512 1514 1516 1517 1520 1522 1524 1526 1526 1527 1527 1527 1527 1525 1524 1523 1523 1521 1520 1519 1517 1515 1514 1511 1509 1507 1506 1504 1503 1502 1501 1499 1498 1495 1492 1490 1486 1485
1515 1511 1514 1510 1508 1510 1509 1511 1512 1513 1516 1519 1521 1522 1523 1523 1523 1524 1524 1523 1522 1522 1521 1520 1519 1517 1516 1514 1513 1510 1507 1506 1505 1503 1502 1501 1500 1499 1497 1496 1495 1491 1488 1486